Home   Weather   Qyzylorda   Past weeks

Flag for Kazakhstan Past Weather in Qyzylorda, Kazakhstan — Yesterday and Last 2 Weeks

Now
-2 °F

Clear.


Feels Like: -14 °F
Forecast: 15 / 29 °F
Wind: 6 mph from Southeast

Location: Kzyl-Orda

Current Time: Dec 9, 2016 at 11:41:20 pm

Latest Report: Dec 9, 2016 at 11:00 pm


Visibility: 10 mi

Pressure: 30.27 "Hg

Humidity: 92%

Dew Point: -4 °F

Location of QyzylordaLocation

Past Weather in Qyzylorda — Graph

°F

Qyzylorda Temperature Yesterday

Maximum temperature yesterday: 30 °F (at 4:00 pm)
Minimum temperature yesterday: 3 °F (at 6:30 am)
Average temperature yesterday: 19 °F

High & Low Weather Summary for the Past Weeks

 TemperatureHumidityPressure
High59 °F (Dec 3, 3:30 pm)100% (Nov 27, 3:00 am)30.69 "Hg (Nov 27, 3:00 am)
Low-2 °F (Dec 9, 10:00 pm)35% (Nov 29, 1:00 pm)29.74 "Hg (Dec 3, 8:00 am)
Average27 °F77%30.25 "Hg
* Reported Nov 24 10:00 pm — Dec 9 10:00 pm, Qyzylorda, Weather by CustomWeather, © 2016

Note: Actual official high and low records may vary slightly from our data, if they occured in-between our weather recording intervals... More about our weather records

Advertising

Qyzylorda Weather History for the Previous 24 Hours

Scroll right to see more
 ConditionsComfort  
Time TempWeatherWind HumidityBarometerVisibility
10:00 pm
Fri, Dec 9
-2 °FClear.6 mph92%30.30 "Hg10 mi
9:00 pm0 °FClear.6 mph92%30.30 "Hg10 mi
8:00 pm1 °FClear.6 mph92%30.30 "Hg10 mi
7:00 pm5 °FClear.6 mph85%30.30 "Hg10 mi
6:30 pm5 °FSunny.3 mph85%30.30 "Hg10 mi
6:00 pm10 °FSunny.3 mph72%30.33 "Hg10 mi
5:30 pm12 °FScattered clouds.3 mph67%30.33 "HgN/A
5:00 pm12 °FScattered clouds.6 mph73%30.33 "HgN/A
4:30 pm14 °FScattered clouds.8 mph67%30.33 "HgN/A
4:00 pm12 °FScattered clouds.8 mph73%30.33 "HgN/A
3:30 pm12 °FScattered clouds.8 mph73%30.33 "HgN/A
3:00 pm12 °FScattered clouds.8 mph73%30.36 "HgN/A
2:30 pm14 °FScattered clouds.8 mph67%30.36 "HgN/A
2:00 pm12 °FScattered clouds.10 mph73%30.36 "HgN/A
1:30 pm12 °FScattered clouds.10 mph73%30.36 "HgN/A
1:00 pm10 °FScattered clouds.10 mph79%30.36 "HgN/A
12:30 pm10 °FScattered clouds.8 mph72%30.39 "HgN/A
12:00 pm9 °FPartly sunny.8 mph78%30.39 "HgN/A
11:30 am9 °FScattered clouds.10 mph78%30.39 "HgN/A
11:00 am9 °FScattered clouds.8 mph78%30.39 "HgN/A
10:30 am7 °FPartly sunny.6 mph85%30.39 "HgN/A
10:00 am5 °FPassing clouds.8 mph85%30.39 "HgN/A
9:30 am5 °FOvercast.8 mph85%30.39 "HgN/A
9:00 am5 °FOvercast.6 mph85%30.36 "HgN/A
8:30 am5 °FOvercast.6 mph85%30.36 "HgN/A
8:00 am5 °FOvercast.8 mph78%30.33 "HgN/A
7:30 am5 °FOvercast.10 mph85%30.33 "HgN/A
7:00 am10 °FOvercast.15 mph85%30.33 "HgN/A
6:30 am10 °FOvercast.8 mph85%30.30 "HgN/A
6:00 am7 °FOvercast.6 mph85%30.30 "HgN/A
5:30 am7 °FOvercast.8 mph85%30.30 "HgN/A
5:00 am9 °FOvercast.13 mph85%30.27 "HgN/A
4:00 am12 °FOvercast.13 mph79%30.24 "HgN/A
3:00 am16 °FOvercast.17 mph79%30.21 "HgN/A
2:00 am19 °FOvercast.15 mph86%30.18 "HgN/A
1:00 am21 °FLight snow. Overcast.20 mph93%30.15 "Hg3 mi
12:00 am30 °FLight snow. Overcast.17 mph100%30.09 "Hg6 mi
11:00 pm
Thu, Dec 8
30 °FLight snow. Overcast.13 mph93%30.09 "Hg6 mi
Weather by CustomWeather, © 2016

See weather overviewHow to use our weather pages